Wind_Speed
57 56 54 55 58 61 63 66 68 71 74 76 77 79 80 82 83 85 86 86 86 85 84 84 83 82 81 82 85 89 90 91 91 93 95 98 101 104 104 104 104 104 100 91 78 65 54 47 43 42 43 43 43 47 51 54 56 56 53 53 55 57 58 61 65 68 67 72 82 94 102 105 104 101 98 99 99 98 94 91 92 93 92 90 88
56 54 54 57 59 62 64 67 70 73 75 77 78 79 80 82 84 85 85 86 85 84 83 82 82 82 81 83 87 89 90 91 92 94 97 100 103 104 105 105 105 101 92 78 64 53 47 43 42 42 42 42 44 47 52 54 53 51 50 52 54 56 59 60 63 67 68 72 81 92 100 104 104 100 98 99 100 99 96 92 92 92 90 89 88
54 53 55 58 61 63 66 69 73 75 76 77 78 79 81 82 84 85 85 84 84 83 83 82 82 81 81 85 87 89 90 91 93 97 100 103 104 105 106 106 102 92 79 64 52 47 44 42 41 41 42 43 45 48 51 51 48 47 48 51 53 55 58 59 61 66 69 72 80 91 99 103 103 99 98 100 100 99 97 91 90 91 89 88 87
53 54 57 60 62 65 69 72 75 76 76 77 78 79 81 83 84 84 85 84 83 83 82 82 82 81 83 86 88 89 90 92 95 99 102 104 104 105 106 103 94 80 64 52 45 44 44 41 40 41 43 44 46 49 50 47 45 45 47 50 52 54 57 58 61 65 69 72 79 89 97 101 101 98 98 100 99 98 96 90 87 88 88 86 85
53 55 59 62 65 68 72 75 76 76 76 77 78 80 81 82 83 84 85 84 83 83 82 82 82 82 85 87 88 89 90 93 96 100 104 105 106 106 104 95 82 66 52 45 43 43 42 40 40 42 44 46 48 48 47 44 43 45 47 49 51 53 55 58 61 65 69 72 78 88 94 97 99 98 98 99 97 96 95 90 85 86 87 85 84
54 58 61 64 68 72 74 76 75 75 76 77 78 79 80 82 83 84 85 85 83 83 82 82 82 83 86 87 88 89 91 95 98 102 104 106 107 105 98 85 69 55 46 43 42 41 40 40 41 43 46 48 48 46 45 43 43 45 46 48 51 52 55 59 61 65 69 72 78 86 92 95 98 98 98 98 96 94 94 90 85 84 85 85 84
57 60 64 68 72 74 75 75 75 75 77 78 79 80 81 82 83 85 86 85 83 83 82 82 82 84 86 87 88 90 92 96 99 102 104 106 105 100 88 72 58 48 44 43 41 39 40 41 43 45 48 48 46 43 43 43 42 45 46 48 51 52 56 60 62 65 69 72 79 86 92 98 100 98 99 98 96 95 92 87 83 83 84 86 85
60 64 68 71 73 74 74 74 74 75 77 78 79 80 82 83 84 86 86 84 83 83 82 82 83 85 87 88 88 90 94 97 100 102 104 104 100 92 77 61 51 47 45 42 40 39 41 43 45 47 48 47 44 42 43 43 43 45 47 49 52 54 58 61 62 65 68 72 79 87 95 100 99 98 99 98 95 93 89 84 82 82 84 85 84
63 68 71 72 72 72 73 74 75 75 76 78 80 81 83 84 85 86 85 83 83 83 82 82 83 85 87 88 89 91 95 98 100 102 104 100 93 82 66 53 49 47 43 40 39 40 43 45 47 49 48 45 44 43 43 45 45 46 49 51 54 57 60 61 62 64 66 71 79 88 95 98 97 98 98 97 94 90 86 83 80 80 81 83 82
67 71 72 71 71 72 73 74 75 76 76 78 80 82 83 84 85 85 84 83 83 83 82 83 84 86 87 88 89 92 96 98 99 101 101 95 85 72 58 50 47 44 40 38 39 42 46 47 48 48 46 45 45 45 45 47 47 48 51 53 56 60 62 62 62 62 65 72 79 86 94 98 98 99 98 95 90 84 83 84 82 79 80 81 80
71 73 72 71 72 73 73 74 74 75 77 79 81 82 83 84 85 84 83 82 83 82 82 83 85 86 87 88 90 94 97 97 98 100 97 86 74 63 55 50 46 42 38 38 41 44 48 49 48 47 45 45 46 46 47 48 48 51 53 55 59 63 64 64 62 60 65 75 79 82 92 99 98 98 99 93 85 81 84 86 83 79 80 82 80
73 73 72 72 73 73 73 73 74 75 77 79 80 81 83 84 84 83 82 82 82 82 82 83 85 86 88 89 92 95 97 97 98 98 90 75 64 58 54 50 44 40 39 41 44 47 49 49 47 46 45 44 45 44 45 47 49 53 56 58 62 66 65 64 62 60 67 80 82 77 86 98 100 97 97 90 81 81 87 86 82 79 78 81 81
74 73 73 73 73 73 73 73 75 76 77 78 79 81 83 83 83 82 81 81 81 81 82 83 84 86 88 90 93 96 98 98 97 95 83 65 56 55 53 47 42 40 41 44 47 49 49 48 46 45 43 42 42 42 43 46 50 55 57 60 64 65 64 62 60 61 71 85 85 76 80 94 100 96 90 86 80 82 87 86 81 77 77 80 79
74 74 73 73 73 73 73 74 75 76 76 77 79 81 82 82 82 81 80 80 80 80 81 82 84 86 88 91 94 97 99 98 97 92 75 56 52 52 48 43 41 42 44 47 48 48 47 46 43 41 38 38 38 39 41 45 51 56 58 61 64 64 62 59 57 64 77 87 89 84 82 90 98 92 84 81 81 83 86 87 82 77 76 77 74
75 74 73 73 73 73 73 73 74 74 75 77 79 80 81 81 80 80 79 79 79 79 80 81 83 85 88 91 94 97 99 98 97 89 68 51 48 48 43 40 41 43 46 49 48 46 45 42 37 33 32 32 33 36 40 45 52 56 59 62 63 62 60 56 58 69 81 85 89 92 91 92 92 87 80 79 81 83 85 86 81 76 76 76 72
75 73 73 73 73 72 72 72 72 73 75 77 78 80 80 80 79 78 78 78 78 79 80 81 83 84 88 92 94 96 98 97 96 86 63 47 46 44 39 39 41 44 48 48 46 44 40 34 27 24 24 26 30 34 39 45 51 56 59 60 60 58 55 54 62 74 81 81 87 94 95 93 86 80 79 79 80 83 83 82 80 77 77 78 74
74 73 74 73 71 70 70 70 71 73 75 76 78 79 78 78 77 77 76 76 76 78 79 80 83 84 88 92 94 96 96 95 94 83 59 45 45 42 38 38 41 45 48 46 43 39 31 23 18 18 19 22 28 32 38 45 49 53 56 56 55 52 51 56 68 77 78 78 85 92 94 91 83 78 79 81 83 86 83 81 81 80 79 79 77
74 75 74 72 69 69 68 69 71 72 74 76 77 77 77 76 76 75 75 75 75 77 78 79 82 85 88 92 94 96 94 90 89 80 59 44 44 41 37 38 41 45 46 43 38 31 21 15 14 15 17 20 25 30 36 42 45 49 50 50 50 48 50 61 74 79 76 77 84 90 91 89 83 78 79 83 87 88 84 79 80 80 79 78 78
76 76 73 69 68 68 68 69 70 72 74 75 76 76 75 75 74 74 74 74 75 77 77 78 80 84 88 92 94 95 92 85 82 76 59 45 43 40 36 37 41 43 42 38 32 22 15 13 14 16 18 20 23 27 33 37 40 43 44 45 45 46 53 68 78 78 77 80 86 89 87 86 83 78 79 85 88 87 82 77 76 77 76 76 76
77 75 70 67 67 67 67 69 71 72 74 74 75 74 73 73 73 73 73 73 74 76 77 77 79 83 87 91 93 93 89 80 74 70 58 46 42 39 35 35 39 40 38 33 24 16 15 15 16 18 20 22 24 27 31 33 36 39 40 42 43 48 60 74 78 77 80 86 90 90 86 83 82 79 80 85 87 85 81 76 72 71 70 72 74
76 72 69 67 67 67 68 70 72 72 73 73 73 72 72 71 71 71 72 72 73 75 76 76 79 82 86 90 92 90 84 74 66 63 57 47 41 37 33 34 37 37 34 28 19 15 16 16 18 21 22 24 26 28 30 32 34 37 39 41 45 54 69 77 77 77 83 87 88 89 86 83 81 79 81 84 84 82 79 74 70 67 66 67 69
74 71 68 67 67 67 68 71 72 72 72 72 71 70 70 70 70 70 71 72 73 74 75 76 78 81 85 88 90 87 79 68 59 57 55 49 41 36 32 31 34 34 30 24 17 16 18 18 20 22 23 25 27 28 30 32 34 38 40 43 50 63 74 78 76 79 83 81 80 84 85 82 79 78 80 81 79 78 76 73 70 68 65 64 63
73 70 68 67 67 68 70 71 71 71 70 70 69 68 68 68 68 69 70 71 72 73 75 76 78 81 84 86 88 84 74 61 52 51 52 49 41 33 30 29 31 32 28 21 17 18 19 19 20 22 23 25 27 28 30 32 35 39 42 48 58 70 76 77 77 81 82 76 75 81 83 80 77 77 79 78 76 76 74 72 72 70 65 61 61
71 68 66 66 68 70 70 70 69 69 68 68 67 66 65 66 67 68 69 70 71 72 74 75 77 80 83 84 85 81 70 56 46 45 49 48 40 30 27 27 29 30 27 21 18 19 20 20 21 21 22 24 26 28 30 33 36 40 46 55 65 73 77 77 79 82 80 74 73 79 82 79 77 78 78 77 76 74 71 68 69 70 64 58 59
69 66 65 67 69 70 69 68 67 67 66 65 64 63 63 64 65 67 68 70 71 72 73 75 78 80 82 83 83 79 67 51 42 41 45 45 38 28 24 24 26 27 26 21 19 20 21 21 21 21 22 23 25 28 30 33 36 44 53 62 69 74 75 76 78 81 80 74 72 77 81 79 77 77 77 76 73 71 67 60 60 64 63 60 59
66 65 67 68 69 69 67 66 65 65 64 63 61 60 61 62 64 66 67 69 71 72 73 75 78 80 82 83 82 77 65 49 38 37 40 40 35 28 23 22 24 26 25 21 19 21 22 22 21 21 21 22 25 28 31 33 39 49 59 66 70 71 72 75 77 80 79 73 71 76 80 79 78 78 77 74 69 66 64 58 57 62 65 64 64
65 66 68 68 68 66 65 64 63 62 61 59 57 57 59 61 63 65 67 69 70 72 73 75 78 80 82 82 80 75 64 48 37 35 35 33 30 27 23 21 23 24 23 21 19 21 23 22 21 21 21 22 25 29 32 36 43 53 62 67 68 69 72 74 76 78 77 72 73 79 82 80 80 81 79 73 67 64 63 61 61 67 70 69 68
66 67 67 67 65 64 62 61 59 58 57 55 54 55 57 60 63 64 67 69 70 72 73 76 79 81 82 82 79 73 62 46 36 33 31 26 23 22 21 21 22 23 22 20 18 21 23 23 22 21 21 23 26 30 34 41 48 56 63 65 65 69 74 76 75 76 75 72 74 80 82 81 82 82 78 72 68 67 66 65 67 72 74 73 70
67 67 66 65 63 61 59 57 55 54 53 52 52 53 55 58 61 64 66 69 71 72 74 76 79 81 82 81 78 72 61 45 34 32 31 25 20 18 17 18 20 22 21 19 18 20 23 24 23 21 21 22 26 31 38 43 50 58 63 62 61 66 75 77 74 73 74 74 75 78 79 79 79 79 76 71 69 70 70 70 74 77 75 72 68
67 66 65 63 61 58 56 54 52 50 49 50 51 53 55 58 61 63 66 68 71 73 75 77 79 81 81 79 76 70 60 45 33 32 34 29 22 17 16 16 17 19 21 19 17 19 22 25 24 22 21 22 26 33 40 45 52 60 63 59 57 62 72 77 74 72 73 75 75 75 76 75 74 75 75 71 70 72 72 73 77 77 71 67 67
66 65 63 61 59 56 53 51 49 48 47 48 49 52 55 58 61 63 65 67 70 73 75 77 79 80 80 76 71 65 56 44 35 32 33 30 24 18 16 17 17 18 19 19 17 18 21 25 25 23 22 22 25 34 41 46 53 61 62 58 56 61 68 73 72 69 70 73 74 73 72 71 71 74 75 72 70 70 71 72 75 72 65 65 69
65 63 61 59 56 54 51 48 46 46 45 46 48 50 53 56 60 63 65 66 69 72 74 77 78 79 77 73 67 60 52 43 36 32 29 27 24 20 17 16 16 16 16 17 17 17 20 25 26 25 24 23 26 34 41 46 52 59 60 57 57 60 66 69 66 64 65 69 72 72 69 69 71 74 75 73 71 69 69 69 70 67 65 68 71
63 61 59 56 54 50 47 45 44 43 44 45 47 49 52 55 58 61 64 66 69 71 74 76 77 75 72 68 62 56 49 41 36 32 28 25 24 23 20 17 16 16 15 15 16 17 20 24 27 27 26 25 27 34 41 47 53 57 58 57 57 60 65 67 65 63 63 66 69 71 69 69 71 74 75 74 71 70 70 68 67 66 68 73 74
61 59 56 54 50 47 44 42 41 42 43 44 46 48 51 54 57 59 62 65 68 71 73 74 74 72 67 62 57 52 46 39 35 33 30 25 22 23 22 19 17 16 16 15 15 16 19 23 27 28 28 27 28 33 41 49 54 58 58 58 58 61 64 65 66 65 65 66 68 71 72 71 71 72 74 73 72 71 71 69 69 70 72 75 76
59 56 54 51 47 43 41 39 40 40 42 43 46 48 51 53 56 59 61 63 66 69 71 72 72 69 63 57 52 48 44 39 35 34 33 29 22 20 22 22 20 17 16 16 16 16 19 23 27 29 31 29 29 34 42 49 55 60 61 60 59 60 61 63 64 65 66 66 67 69 72 74 73 71 72 72 72 73 73 73 73 74 75 76 76
56 54 51 47 43 40 38 37 38 39 41 43 45 48 50 53 56 59 62 64 66 69 70 71 69 65 59 52 47 45 43 39 36 35 35 30 21 15 17 20 21 18 16 16 16 17 19 23 26 30 32 32 31 34 42 50 57 61 64 63 61 60 60 61 62 64 65 66 66 67 70 74 75 74 72 71 73 76 77 76 75 74 75 76 76
53 50 47 43 39 36 36 36 37 39 40 42 45 47 50 52 56 59 62 64 67 69 70 69 66 60 53 46 41 40 41 39 36 34 34 32 25 20 19 19 17 16 16 16 16 16 18 22 26 30 32 33 33 34 40 49 57 63 65 65 63 62 61 61 61 62 63 64 65 66 67 70 74 75 72 71 74 78 79 78 76 75 75 76 77
49 46 42 38 35 34 34 35 36 38 40 42 45 47 50 52 56 59 62 65 67 69 70 69 64 57 49 42 37 36 37 35 33 32 32 33 33 31 28 23 16 14 15 17 18 17 17 20 25 30 33 34 35 35 38 46 55 63 66 67 66 65 63 62 62 62 63 64 65 65 66 68 72 74 72 72 74 79 81 81 79 77 76 76 76
46 42 37 34 32 32 33 35 36 38 40 43 45 47 50 53 56 59 62 65 67 69 70 68 63 55 47 40 35 34 34 32 29 27 28 30 32 31 29 25 19 14 14 16 18 19 19 20 24 29 33 35 36 37 38 42 51 60 65 68 68 67 65 63 62 62 64 66 66 67 67 68 70 73 73 73 75 78 80 80 79 77 76 75 74
42 37 33 31 31 32 33 34 36 38 40 43 45 47 50 52 55 58 61 65 67 69 70 67 61 53 45 38 33 31 31 29 26 24 25 27 27 26 26 25 21 16 14 15 17 18 19 20 23 28 32 35 37 38 39 41 47 56 63 68 70 70 68 65 62 62 64 66 68 69 69 69 71 73 74 74 75 77 78 77 76 76 75 74 73
37 33 31 29 30 32 33 34 36 38 40 43 45 48 50 53 55 58 61 64 67 70 70 66 59 50 43 37 32 31 30 28 25 23 24 25 25 22 21 21 21 18 15 15 17 19 19 20 23 27 32 35 37 38 40 42 45 52 60 66 70 72 71 67 64 62 63 65 68 70 71 71 72 74 74 74 75 76 76 76 76 75 75 75 75
33 30 29 29 30 31 33 35 37 39 41 43 46 48 50 53 55 58 61 64 67 69 69 65 57 47 40 35 32 31 31 29 26 23 23 24 25 23 20 19 18 17 16 15 17 18 18 19 22 27 32 36 38 39 41 42 45 49 56 64 70 73 72 69 66 63 62 63 66 69 72 73 74 75 75 75 76 76 75 75 77 77 77 77 77
30 28 28 29 30 32 33 35 37 39 41 44 46 48 50 53 55 58 61 64 66 69 69 63 54 45 38 33 31 30 30 29 27 24 23 24 25 24 21 19 16 15 15 15 16 18 17 15 17 23 30 37 40 41 42 43 45 47 53 60 68 72 72 70 67 64 62 61 63 66 70 73 75 77 77 77 77 77 76 75 76 78 78 77 77
28 27 27 29 30 32 34 35 37 39 42 44 46 48 51 53 55 58 61 63 66 68 68 62 53 43 36 32 30 29 29 28 27 25 23 23 24 24 23 20 17 14 12 13 16 19 20 18 17 19 24 33 41 43 43 44 45 47 50 57 65 71 72 71 68 64 62 61 61 62 65 70 74 78 80 79 79 80 79 77 76 77 79 79 78
26 27 28 29 30 33 34 36 38 40 42 44 46 48 50 53 56 58 61 63 66 67 66 61 52 42 34 31 29 28 28 27 26 25 22 22 22 23 23 22 18 15 12 12 14 18 21 22 21 19 21 27 37 43 45 45 46 47 50 54 62 69 72 72 69 65 62 61 60 60 62 65 70 76 80 81 80 80 81 80 78 78 78 79 80
26 27 28 29 31 33 34 36 38 40 42 44 46 48 51 53 56 58 61 63 65 66 64 59 51 41 34 30 28 27 27 26 26 25 23 21 21 22 22 22 19 15 13 12 12 14 17 19 21 21 20 23 30 38 44 46 46 47 49 53 60 67 71 73 71 67 64 61 59 59 60 63 67 72 77 81 81 80 80 80 80 79 79 79 79
26 27 28 30 32 34 35 37 39 41 43 45 46 48 51 53 56 58 61 62 63 63 62 57 49 41 34 29 27 26 25 25 25 24 23 21 20 20 20 21 19 16 13 12 11 12 14 15 18 20 20 20 24 31 39 45 47 47 49 53 58 64 70 73 72 69 67 64 60 58 58 61 64 68 73 79 82 84 84 83 83 83 82 82 81
26 27 29 31 32 34 36 37 39 41 43 45 46 48 51 53 56 58 60 61 61 61 58 54 48 40 34 29 27 25 24 24 24 23 22 20 19 18 18 19 19 18 15 12 10 10 12 14 16 19 20 21 22 25 32 40 45 47 48 52 57 62 68 72 73 71 68 65 62 59 58 59 61 65 69 74 79 84 86 87 86 85 84 82 81
27 28 30 32 33 35 36 38 40 42 43 44 46 48 50 53 56 58 59 59 59 58 55 50 45 39 34 30 27 25 23 23 23 22 22 20 19 17 16 17 18 18 16 13 10 9 10 12 14 17 20 22 23 23 26 33 41 45 46 50 55 61 67 72 73 72 69 67 64 61 59 59 61 64 68 71 75 78 81 84 86 86 86 84 82
28 29 31 32 33 35 36 38 40 41 43 44 46 48 50 53 55 57 57 58 57 55 52 47 42 37 34 31 27 25 24 23 22 22 22 21 20 18 17 16 16 16 16 14 12 9 9 11 13 15 18 22 24 24 24 27 33 39 43 47 52 58 66 72 74 73 70 68 66 64 62 61 61 64 67 71 73 75 77 80 83 85 87 87 87
28 30 31 32 34 35 37 38 40 41 43 45 46 48 50 52 54 55 56 55 55 53 49 43 38 35 33 31 28 26 24 23 22 21 21 20 19 18 17 16 15 14 14 15 13 10 8 9 11 13 16 19 24 27 27 26 28 32 37 42 49 56 64 71 75 74 71 69 68 66 64 62 62 63 66 70 73 76 77 79 81 83 85 86 86
Wind_Direction
299 297 297 300 304 305 307 308 309 309 309 308 307 306 305 304 304 303 303 304 306 308 309 309 310 310 310 310 311 312 312 312 312 312 313 312 312 312 313 313 313 312 311 309 305 298 289 281 274 270 267 263 261 260 263 266 266 263 253 243 238 238 237 231 220 211 211 214 211 206 205 204 205 205 204 202 201 200 202 205 207 208 210 212 214
297 296 298 302 305 306 308 309 309 309 309 308 307 306 305 304 303 303 304 305 307 309 310 310 310 311 311 311 312 313 313 313 314 314 314 314 314 314 315 315 314 313 311 307 300 291 282 277 273 269 265 263 262 263 267 268 264 256 245 237 237 237 236 230 219 210 208 211 211 207 204 204 203 202 201 200 200 199 201 204 205 206 208 210 212
296 297 300 304 306 307 309 310 310 310 308 307 306 305 304 304 303 304 305 307 309 310 310 311 311 311 312 313 313 314 314 314 315 315 315 315 316 316 316 316 315 313 309 303 294 285 280 276 272 268 265 264 265 268 270 266 257 249 238 235 237 237 234 228 218 210 206 208 211 208 204 203 202 200 199 199 199 199 200 203 203 205 207 209 211
296 299 303 305 307 309 310 310 310 309 307 306 305 305 304 304 304 305 306 308 310 311 311 311 312 312 312 314 314 315 315 316 316 317 317 317 318 318 317 316 315 312 306 297 289 283 279 275 270 267 266 267 270 271 268 259 250 242 234 234 237 235 231 224 216 210 205 206 210 208 203 202 200 198 198 199 198 198 200 202 202 204 206 208 210
298 302 305 307 309 309 310 310 309 307 307 306 305 304 304 305 305 306 307 309 310 311 312 312 312 312 313 315 316 316 317 317 318 319 319 319 320 319 318 317 314 309 302 294 287 283 277 273 269 268 269 272 273 271 262 251 244 238 233 234 235 231 226 220 213 209 205 204 208 207 202 200 198 197 197 198 198 197 199 201 201 203 206 208 209
300 304 307 309 310 310 309 308 307 307 306 305 304 304 305 306 306 307 308 309 310 312 312 312 312 313 315 316 317 318 318 318 320 321 321 321 320 319 318 317 313 306 300 293 288 281 274 271 270 271 274 276 273 266 254 245 241 236 233 233 231 225 220 215 210 208 204 202 206 205 200 197 197 196 196 197 197 196 198 201 200 201 205 208 209
304 307 309 310 309 308 307 307 307 306 305 304 304 304 305 306 307 308 309 309 311 312 312 312 313 314 316 318 318 319 319 320 322 323 322 321 320 319 318 315 310 304 300 294 287 279 274 273 273 276 278 277 270 259 249 243 240 235 231 229 225 219 215 212 209 207 204 202 204 202 197 195 195 194 194 196 196 195 197 199 200 200 204 207 208
306 308 309 309 308 307 306 306 306 305 304 303 303 304 306 307 308 308 309 310 312 313 313 312 313 315 317 319 319 320 320 322 324 324 323 321 320 319 317 313 308 304 300 294 286 280 277 277 278 280 280 275 265 255 247 243 239 233 229 225 220 215 212 210 208 207 204 202 202 199 195 194 194 192 193 195 194 194 195 198 199 200 203 206 207
306 308 308 308 307 306 306 305 304 304 303 303 303 305 306 307 308 309 309 311 312 313 313 313 314 316 318 319 320 320 321 324 326 325 323 322 320 318 315 311 307 304 299 292 286 282 281 281 283 283 279 271 263 254 247 244 238 230 225 220 216 213 211 210 208 208 205 201 199 196 193 193 191 191 193 194 193 193 195 196 198 200 202 205 206
307 308 308 307 307 306 305 304 303 303 303 303 304 306 307 308 309 309 310 311 312 313 313 313 315 318 319 320 321 321 323 326 327 326 324 322 319 317 314 310 306 303 297 290 286 285 286 287 286 283 277 270 263 256 249 244 236 226 220 216 213 210 210 209 207 208 205 198 193 192 191 191 190 190 192 192 192 193 194 196 198 199 201 204 205
309 309 308 308 307 306 304 303 303 302 303 303 305 306 307 308 309 309 311 312 313 313 314 314 316 318 320 320 321 322 324 327 329 327 324 322 317 314 313 310 306 302 296 291 290 290 291 291 288 282 276 270 264 256 249 241 232 221 214 212 210 208 208 208 207 208 203 191 186 189 191 190 189 190 191 191 192 193 193 195 198 198 199 202 204
309 309 309 308 307 305 304 303 302 302 303 304 305 306 307 308 309 310 311 312 313 314 314 315 317 319 320 321 322 323 326 329 330 328 325 321 315 313 312 310 305 301 298 297 298 297 295 293 288 283 277 270 261 253 244 235 225 215 210 208 207 206 208 208 207 208 199 185 181 186 190 190 189 189 190 191 192 193 192 194 197 198 198 201 202
308 309 308 308 306 305 304 303 303 303 303 304 305 306 307 308 309 310 311 312 313 314 314 316 318 320 321 321 323 324 326 330 331 330 326 319 313 312 312 308 304 303 303 304 304 301 298 294 289 283 276 266 256 246 236 226 216 209 206 205 204 206 208 208 208 207 196 183 180 182 186 190 189 188 189 191 192 192 192 193 195 197 199 200 201
308 308 307 307 306 305 305 304 304 303 303 304 305 306 307 308 309 310 311 313 314 314 315 317 319 320 321 322 324 326 327 330 332 331 326 318 312 312 310 307 306 307 308 308 307 303 299 295 289 282 271 260 249 237 226 217 209 204 203 202 203 206 208 208 208 203 192 184 183 182 184 188 188 186 187 190 191 191 192 193 194 195 198 199 200
307 307 307 307 307 306 305 304 303 303 303 305 305 306 307 307 308 310 311 313 314 314 315 317 319 321 321 323 325 327 328 330 333 333 327 318 314 313 309 308 310 311 312 311 308 305 300 294 287 276 264 252 238 225 216 209 203 201 200 200 203 206 207 207 206 198 188 185 186 186 185 186 186 186 187 188 190 190 191 194 195 195 197 198 200
307 307 308 308 306 305 304 303 303 303 304 305 305 305 306 307 308 310 311 313 314 314 316 318 320 321 322 324 326 328 329 330 333 333 328 319 317 314 309 311 313 314 314 312 310 306 300 291 280 267 254 239 224 214 207 202 199 198 198 199 204 206 206 206 202 192 185 186 188 188 187 184 184 187 189 188 189 189 190 194 196 195 198 200 200
308 308 308 306 305 304 304 303 303 303 304 305 305 304 305 306 308 310 311 312 314 314 316 319 321 322 323 325 327 329 330 330 332 333 329 322 319 315 311 314 316 316 316 314 311 306 296 281 266 250 237 224 213 206 201 197 196 196 198 201 205 206 206 204 197 188 183 185 187 187 186 184 183 185 189 188 188 188 189 193 195 195 198 201 202
308 308 306 304 303 304 304 303 303 304 305 305 304 304 304 306 308 309 311 312 313 315 317 320 322 323 324 326 328 330 330 330 331 332 330 325 322 316 312 315 318 318 317 315 311 303 284 260 241 224 217 211 204 200 197 195 196 198 202 205 207 206 205 200 191 184 181 183 185 185 186 185 183 185 189 189 188 189 190 192 195 196 198 201 203
308 307 305 303 303 304 304 304 304 305 305 304 303 303 304 305 307 309 310 312 314 315 318 321 323 324 325 327 329 330 331 331 330 330 329 326 323 317 313 316 319 319 318 316 310 293 261 233 217 205 201 201 199 198 198 199 201 205 208 211 210 207 202 194 186 181 180 182 183 184 185 185 183 185 189 189 189 191 191 190 194 197 198 201 203
307 306 303 302 304 305 304 304 305 305 305 303 302 302 303 305 307 308 310 313 314 316 319 321 323 325 326 329 330 331 331 330 328 326 326 326 323 317 313 315 319 320 319 315 304 275 240 220 208 201 199 200 202 205 208 209 212 214 215 213 208 203 196 189 182 181 183 184 183 184 186 187 185 185 189 189 189 193 192 190 192 197 199 202 203
307 304 302 303 304 305 305 305 305 304 304 302 301 301 302 304 306 308 311 313 314 317 320 322 324 326 328 330 331 331 330 329 326 323 322 323 322 317 312 314 318 320 319 313 293 254 230 218 209 205 206 208 211 215 218 219 219 218 214 207 201 196 190 184 179 181 185 185 185 185 186 187 186 185 187 188 189 193 194 191 192 196 199 202 203
306 303 303 303 304 305 305 305 304 303 302 301 300 301 302 304 306 309 311 313 315 317 320 323 325 327 329 332 332 331 330 327 323 319 318 320 320 315 310 312 316 319 318 308 280 244 228 221 215 213 215 219 221 223 223 221 217 212 205 197 194 191 186 180 179 181 183 185 188 188 186 187 187 186 186 187 188 191 192 191 192 196 198 199 201
304 303 303 304 304 304 304 304 303 301 300 299 299 301 302 304 307 309 311 314 316 318 321 323 325 327 330 333 333 332 330 325 320 316 315 316 318 313 308 310 314 316 315 302 272 241 228 224 221 221 224 227 227 226 222 217 211 203 194 190 190 188 183 179 179 182 183 186 189 189 187 187 187 186 186 185 186 188 189 190 192 194 193 193 197
303 303 303 304 304 304 303 302 301 300 299 298 299 301 303 305 308 309 312 314 316 318 321 323 326 328 331 334 334 332 329 324 318 315 314 313 315 312 306 306 310 312 310 297 267 241 230 226 225 227 229 230 229 225 219 212 203 193 187 186 187 185 181 179 181 184 186 188 189 189 188 187 186 186 185 184 184 186 187 190 193 194 194 195 197
302 303 303 303 302 302 301 300 299 298 297 298 299 302 304 306 308 310 312 314 316 319 321 323 326 329 332 335 336 333 330 324 317 315 314 312 313 311 305 302 305 307 305 292 265 243 231 228 228 230 231 230 228 222 214 205 194 186 183 184 184 181 180 181 184 187 188 190 190 189 188 187 186 186 186 185 186 187 189 191 194 196 198 198 198
301 302 302 301 300 300 299 298 297 297 297 298 300 302 304 306 308 310 313 315 317 320 322 324 327 330 333 336 337 334 330 324 316 316 315 311 311 310 304 299 299 302 300 287 264 244 233 229 229 231 232 230 224 217 208 197 187 182 182 183 183 181 181 184 187 188 189 191 192 189 188 187 188 189 188 187 188 190 192 195 197 196 196 195 196
301 301 300 299 298 298 297 296 295 296 297 299 302 304 306 308 309 312 314 316 318 321 323 325 328 331 334 337 338 336 331 324 317 317 315 309 306 306 303 297 296 298 295 285 265 244 235 231 228 229 232 229 221 212 201 189 183 183 184 183 183 183 184 186 189 190 190 190 190 188 187 188 190 190 189 188 190 193 195 198 198 195 193 195 198
300 299 298 298 297 296 295 294 295 296 297 300 303 305 308 310 312 313 315 317 319 322 324 326 329 332 335 338 339 337 332 324 317 317 315 304 296 299 299 294 296 298 294 285 267 246 235 230 227 228 231 228 218 206 194 185 183 185 185 183 183 186 188 188 189 191 192 191 188 187 189 191 190 189 189 189 191 194 196 196 195 193 194 196 198
299 298 297 297 296 294 293 293 294 296 298 300 303 306 309 311 313 315 317 319 321 323 326 328 331 333 336 338 339 338 333 326 318 320 322 314 298 296 297 292 293 298 296 287 270 248 236 229 225 225 228 226 215 200 189 184 184 186 185 183 184 188 191 191 190 192 193 192 188 186 189 191 190 189 189 190 192 195 195 194 192 192 195 197 196
298 297 297 295 294 292 292 292 293 295 298 302 305 308 310 312 314 317 320 322 324 326 329 331 333 335 337 339 339 337 334 328 323 325 326 320 306 298 296 290 288 293 296 291 273 252 237 228 223 221 224 223 213 197 187 184 186 186 185 184 185 187 190 193 193 194 194 191 187 186 189 189 188 188 189 191 192 194 195 194 193 194 196 195 192
297 296 295 294 292 291 291 291 293 295 299 303 307 311 314 316 318 320 323 325 327 330 332 334 336 337 338 338 339 336 332 328 325 325 324 318 307 297 293 290 286 287 291 289 276 256 238 227 221 218 219 219 209 196 188 186 188 188 186 185 186 187 189 192 194 194 193 191 188 186 188 188 187 188 191 193 193 194 194 194 195 195 196 194 191
296 294 293 292 291 290 290 291 293 296 300 304 309 313 317 321 323 325 327 329 330 332 335 336 338 338 338 337 337 335 330 325 321 322 323 318 307 296 288 285 283 281 286 287 277 260 241 228 220 215 215 214 207 197 189 186 189 192 190 187 186 187 190 194 196 194 193 193 190 188 188 189 188 189 193 195 195 196 196 195 195 196 195 194 193
294 293 291 290 289 288 288 290 293 297 302 306 310 315 319 322 326 329 331 333 334 335 337 338 339 338 337 336 334 331 328 324 319 320 324 323 312 299 289 284 279 274 277 282 276 262 245 230 220 213 212 211 205 198 191 187 189 193 194 192 190 189 191 195 197 196 195 195 195 192 191 190 188 188 192 195 196 197 198 197 197 197 196 195 194
292 291 289 288 287 286 287 290 294 299 304 308 312 316 320 323 326 330 333 335 337 339 340 340 339 337 336 334 331 327 325 322 318 318 324 326 317 300 290 286 281 273 269 271 270 262 247 233 222 213 210 209 204 198 193 189 189 193 196 196 195 194 193 194 196 196 196 197 197 195 194 193 191 189 189 191 193 196 196 195 196 196 195 195 195
290 288 287 285 284 285 287 290 295 300 306 310 314 318 321 324 328 330 333 335 338 340 340 340 338 336 334 331 328 325 323 322 321 321 323 324 316 300 290 288 285 275 264 260 260 258 247 235 224 215 210 209 205 198 194 191 190 192 195 197 198 197 196 195 195 195 195 196 196 196 196 196 195 192 189 188 190 193 194 193 192 193 193 194 195
287 285 284 283 282 283 287 291 296 302 307 312 316 319 323 326 329 332 334 335 337 339 341 340 338 336 332 329 327 325 324 323 320 319 320 319 310 290 281 282 279 271 259 250 251 253 246 235 227 218 212 209 206 200 195 192 191 192 195 197 199 199 199 198 196 196 195 195 196 196 196 198 198 196 192 189 189 190 191 191 190 191 193 194 196
284 282 281 280 280 283 287 293 299 304 309 313 317 320 324 328 330 333 335 336 338 340 341 340 339 335 330 325 324 324 323 321 318 318 322 323 316 301 292 287 278 265 253 243 243 248 246 236 228 221 215 211 208 203 198 194 193 193 195 197 198 199 200 200 199 197 197 196 197 197 197 198 199 198 196 193 191 189 188 189 190 191 193 196 197
280 279 278 277 279 283 288 295 301 306 311 315 318 321 325 328 331 334 336 337 339 341 341 341 339 335 328 322 319 321 322 321 318 319 321 321 316 308 303 299 288 267 251 243 241 245 245 236 228 223 218 214 210 207 202 197 195 195 196 197 198 199 200 200 200 199 198 198 199 200 199 199 199 200 198 196 194 191 188 188 190 192 194 197 199
277 276 274 276 279 284 290 296 302 307 312 315 318 322 326 329 332 335 337 338 340 341 342 341 339 335 328 320 317 320 322 319 313 311 311 313 313 308 303 299 293 277 257 247 244 243 243 238 230 224 220 217 213 210 207 202 198 197 197 197 198 199 200 200 200 199 198 199 201 202 202 201 201 202 201 199 196 195 192 191 193 195 197 199 200
274 272 272 275 280 286 292 298 303 308 313 316 319 323 326 330 333 335 337 339 341 342 342 341 339 334 327 319 314 316 319 316 309 305 307 312 314 309 301 296 293 284 264 250 244 242 241 239 233 225 221 219 216 213 211 207 202 200 199 198 198 199 200 200 201 200 199 198 200 202 203 203 202 203 204 201 198 196 196 196 196 199 201 202 203
270 270 271 275 281 288 294 299 304 309 313 316 320 323 326 330 333 335 338 340 341 342 343 342 338 333 326 318 314 317 320 319 313 308 309 315 318 313 302 294 290 285 272 254 245 243 243 241 235 227 221 218 217 215 213 211 207 204 202 200 200 200 200 200 201 201 199 199 200 201 203 204 204 204 205 203 199 197 197 199 199 200 202 203 204
268 268 271 277 284 290 295 300 306 310 314 317 320 323 326 330 333 336 338 340 341 343 344 342 338 332 324 317 316 320 323 323 319 314 315 320 324 322 312 299 292 288 279 261 246 244 246 244 237 229 221 217 216 215 214 213 211 208 205 203 202 201 201 200 201 201 200 199 200 201 203 205 205 205 205 204 201 198 198 200 202 202 203 203 204
265 268 273 280 286 292 297 301 307 311 314 317 320 323 326 330 333 336 338 340 342 344 345 343 338 332 323 316 316 320 324 326 325 321 318 321 326 327 320 309 300 293 283 263 243 237 239 241 239 233 225 218 215 214 214 213 213 211 209 206 204 203 202 201 201 201 200 199 200 201 203 205 206 206 206 205 204 201 200 200 203 204 204 204 205
264 269 276 282 287 293 297 302 307 311 314 317 320 323 326 330 333 336 338 340 342 344 345 343 339 331 322 316 316 320 324 326 327 324 320 319 323 327 325 318 311 302 287 264 241 233 234 236 240 241 233 222 216 214 213 213 212 212 211 208 205 204 204 202 201 200 200 199 200 201 202 204 205 206 206 206 206 205 203 202 202 203 205 207 209
264 272 278 283 289 294 299 304 308 312 315 318 320 323 326 330 333 336 338 340 342 344 345 343 339 332 322 315 315 319 323 324 326 326 321 317 319 324 326 324 318 307 293 272 249 239 238 237 235 237 237 228 219 215 213 212 212 212 212 210 207 205 204 203 202 201 200 200 201 201 202 203 204 206 206 206 206 206 205 204 204 206 207 210 212
267 274 280 285 291 295 300 305 309 312 315 318 320 323 327 330 333 336 338 340 342 343 344 343 339 332 323 315 314 318 322 323 325 326 323 318 317 319 323 324 320 310 299 285 264 250 245 238 230 227 231 230 223 217 214 212 212 213 213 211 209 206 204 203 202 201 201 201 201 202 202 203 203 204 205 205 205 206 206 207 208 210 211 213 215
270 276 282 288 292 296 301 307 310 313 316 318 320 324 327 330 333 336 338 339 341 342 343 342 338 331 323 315 313 316 320 322 324 325 324 319 315 314 318 324 324 318 308 298 280 261 250 239 227 222 226 229 226 220 216 213 212 213 213 212 210 207 205 203 202 201 201 202 202 203 204 203 203 203 204 205 207 208 210 211 213 214 215 217 219
273 279 285 289 293 298 303 308 311 314 316 318 321 324 327 330 333 335 337 339 340 341 341 339 336 330 323 316 312 313 317 320 322 324 324 320 314 311 314 322 326 322 313 302 288 268 253 240 227 220 222 227 229 225 218 214 213 213 212 212 211 209 206 203 201 200 201 202 203 205 205 204 203 203 204 204 206 209 211 213 215 217 217 218 219
276 282 286 290 295 301 305 308 312 314 316 318 321 324 327 330 332 335 336 338 339 340 339 336 333 328 323 317 313 312 315 318 321 324 325 323 318 312 311 315 321 322 317 308 296 276 256 243 230 220 217 222 228 228 222 215 212 212 211 211 210 209 206 204 201 199 199 201 203 206 207 205 204 204 204 205 206 208 209 211 213 215 216 217 218
279 284 288 293 298 303 306 310 312 314 316 318 321 324 327 330 332 334 335 337 338 339 337 333 329 325 322 319 315 313 314 317 320 322 325 324 320 314 310 308 313 318 318 313 305 288 263 246 235 223 215 216 221 226 224 218 213 210 210 210 210 209 207 204 202 200 200 200 203 206 208 207 206 205 205 206 207 208 209 210 211 213 215 216 216
282 286 290 295 300 304 307 310 313 314 316 319 321 324 327 329 331 333 335 335 337 337 335 330 325 322 321 319 316 314 313 315 316 318 321 323 320 315 308 303 304 311 315 315 312 301 277 252 238 228 217 213 216 221 223 221 216 212 210 209 209 208 207 205 202 201 201 202 203 206 208 209 208 207 207 207 207 207 208 209 209 212 214 216 215
Height
5604 5601 5598 5595 5592 5588 5584 5580 5576 5572 5567 5562 5557 5552 5546 5540 5534 5528 5521 5515 5511 5507 5502 5497 5492 5487 5482 5476 5469 5462 5454 5445 5436 5428 5420 5412 5401 5391 5381 5371 5360 5350 5340 5330 5323 5317 5314 5313 5313 5312 5312 5313 5315 5315 5315 5315 5315 5315 5317 5320 5323 5326 5329 5333 5344 5358 5366 5370 5377 5386 5395 5406 5418 5431 5446 5459 5471 5483 5494 5505 5516 5527 5537 5547 5555
5596 5593 5590 5587 5583 5580 5576 5572 5568 5563 5558 5553 5547 5542 5536 5530 5524 5517 5512 5506 5501 5497 5492 5487 5481 5476 5471 5465 5459 5451 5442 5433 5424 5415 5407 5398 5388 5377 5365 5355 5345 5334 5324 5316 5310 5306 5304 5304 5304 5304 5303 5305 5307 5306 5306 5305 5304 5305 5308 5311 5315 5319 5321 5325 5336 5349 5357 5362 5368 5376 5385 5396 5409 5424 5437 5450 5462 5473 5483 5493 5504 5516 5527 5539 5547
5588 5585 5582 5579 5575 5572 5567 5563 5558 5554 5549 5543 5538 5532 5526 5520 5514 5507 5502 5497 5492 5487 5481 5476 5471 5465 5460 5454 5447 5439 5430 5420 5411 5402 5393 5383 5374 5363 5351 5340 5329 5319 5311 5305 5300 5297 5296 5296 5296 5295 5295 5297 5298 5297 5296 5295 5295 5297 5300 5303 5307 5310 5313 5319 5329 5340 5349 5355 5359 5367 5377 5388 5403 5417 5430 5443 5454 5464 5475 5484 5494 5507 5519 5530 5539
5581 5578 5574 5571 5567 5563 5559 5554 5549 5545 5540 5534 5529 5523 5517 5510 5504 5498 5493 5488 5483 5477 5471 5465 5460 5455 5449 5443 5436 5428 5418 5409 5400 5390 5379 5369 5359 5348 5336 5325 5315 5306 5299 5295 5292 5289 5288 5288 5288 5287 5287 5288 5289 5288 5286 5286 5287 5289 5293 5296 5299 5302 5306 5312 5321 5330 5340 5347 5351 5359 5371 5383 5397 5411 5423 5435 5446 5457 5468 5478 5488 5501 5512 5522 5531
5573 5570 5567 5563 5559 5555 5550 5546 5541 5535 5530 5525 5519 5513 5507 5501 5494 5488 5483 5478 5473 5467 5461 5455 5449 5444 5439 5432 5425 5416 5406 5397 5388 5378 5366 5354 5343 5333 5322 5312 5303 5296 5291 5287 5284 5282 5281 5281 5280 5280 5279 5280 5280 5278 5277 5278 5280 5282 5286 5289 5292 5295 5299 5305 5313 5322 5332 5340 5345 5353 5365 5378 5392 5405 5416 5428 5440 5452 5463 5473 5483 5495 5506 5515 5524
5566 5563 5559 5555 5550 5546 5541 5537 5532 5527 5521 5516 5510 5504 5498 5492 5485 5479 5474 5469 5464 5458 5452 5445 5439 5434 5429 5422 5414 5405 5395 5385 5376 5365 5352 5339 5328 5318 5309 5300 5293 5287 5283 5280 5277 5275 5274 5274 5273 5272 5271 5270 5270 5269 5269 5271 5273 5275 5279 5282 5285 5289 5293 5298 5306 5314 5324 5333 5338 5346 5360 5374 5387 5400 5411 5423 5435 5447 5458 5468 5477 5488 5499 5508 5516
5558 5555 5551 5547 5542 5537 5532 5527 5522 5518 5512 5507 5501 5495 5489 5482 5476 5470 5464 5459 5454 5449 5443 5436 5430 5424 5418 5412 5403 5394 5385 5375 5365 5354 5341 5328 5316 5306 5297 5290 5284 5280 5276 5273 5270 5268 5267 5266 5265 5264 5262 5261 5261 5261 5261 5263 5266 5269 5272 5275 5279 5283 5287 5292 5299 5307 5316 5325 5331 5340 5354 5367 5380 5394 5407 5418 5429 5440 5451 5462 5470 5480 5490 5500 5510
5551 5547 5543 5539 5534 5528 5523 5518 5513 5509 5504 5498 5492 5486 5480 5474 5467 5461 5455 5450 5445 5439 5433 5427 5421 5415 5408 5401 5393 5384 5374 5365 5354 5342 5330 5317 5305 5295 5288 5282 5277 5273 5270 5266 5263 5262 5260 5259 5257 5255 5253 5252 5252 5252 5254 5256 5258 5261 5265 5269 5272 5277 5281 5287 5294 5301 5310 5318 5325 5335 5348 5361 5375 5390 5401 5411 5422 5434 5445 5455 5465 5474 5484 5494 5505
5543 5539 5535 5530 5525 5519 5514 5509 5504 5500 5495 5489 5483 5477 5471 5465 5459 5452 5447 5441 5436 5430 5423 5417 5411 5406 5399 5391 5383 5374 5364 5355 5344 5330 5316 5305 5295 5286 5280 5276 5271 5267 5263 5260 5257 5255 5253 5251 5249 5246 5244 5243 5243 5244 5246 5248 5250 5254 5259 5262 5266 5271 5276 5282 5289 5296 5304 5312 5320 5331 5344 5357 5372 5385 5395 5406 5419 5431 5441 5451 5461 5471 5481 5491 5500
5535 5530 5526 5521 5515 5510 5505 5500 5496 5491 5486 5480 5474 5468 5462 5456 5450 5444 5438 5433 5427 5420 5414 5407 5401 5396 5390 5383 5374 5365 5355 5346 5335 5320 5305 5293 5284 5277 5273 5269 5264 5260 5257 5254 5251 5248 5245 5242 5240 5236 5234 5234 5234 5235 5237 5239 5242 5246 5251 5256 5261 5266 5271 5277 5284 5292 5299 5308 5317 5328 5340 5354 5368 5379 5390 5405 5418 5427 5437 5447 5456 5466 5476 5485 5495
5526 5521 5516 5511 5506 5501 5496 5492 5487 5482 5477 5471 5465 5460 5454 5448 5443 5436 5430 5424 5418 5411 5404 5398 5392 5386 5380 5373 5365 5356 5347 5338 5327 5312 5296 5283 5274 5269 5266 5262 5258 5254 5251 5248 5245 5241 5236 5233 5230 5227 5225 5224 5224 5225 5227 5230 5234 5238 5243 5249 5254 5260 5266 5272 5280 5287 5295 5304 5315 5326 5337 5351 5364 5375 5388 5401 5412 5421 5431 5442 5451 5460 5468 5478 5488
5516 5512 5507 5502 5497 5493 5488 5483 5479 5473 5468 5462 5457 5452 5446 5440 5435 5429 5423 5416 5410 5403 5395 5389 5383 5377 5370 5363 5355 5345 5337 5329 5319 5304 5289 5277 5268 5263 5259 5255 5251 5248 5244 5241 5237 5232 5228 5223 5220 5217 5215 5214 5213 5215 5217 5221 5225 5231 5236 5242 5248 5254 5261 5268 5276 5284 5292 5301 5312 5324 5336 5349 5361 5373 5385 5397 5406 5415 5425 5436 5447 5456 5463 5472 5481
5507 5502 5498 5493 5489 5484 5479 5475 5470 5464 5459 5454 5449 5444 5438 5432 5427 5421 5416 5409 5403 5396 5388 5381 5375 5368 5361 5354 5346 5336 5326 5320 5310 5295 5281 5271 5263 5258 5253 5249 5245 5241 5237 5233 5229 5224 5219 5214 5210 5207 5205 5204 5204 5206 5209 5213 5218 5224 5230 5237 5244 5251 5258 5265 5273 5281 5289 5298 5309 5323 5335 5346 5357 5370 5383 5393 5402 5411 5420 5431 5442 5452 5460 5469 5478
5497 5493 5489 5484 5480 5475 5471 5466 5461 5456 5451 5446 5441 5435 5430 5425 5420 5414 5408 5402 5396 5389 5381 5374 5368 5360 5352 5345 5338 5327 5316 5309 5301 5288 5275 5266 5259 5253 5248 5243 5239 5235 5230 5226 5221 5216 5211 5206 5202 5199 5197 5196 5197 5199 5202 5207 5212 5219 5226 5233 5241 5248 5255 5263 5270 5277 5286 5296 5308 5320 5332 5341 5354 5368 5379 5387 5395 5404 5415 5427 5437 5447 5458 5469 5478
5488 5484 5479 5475 5471 5466 5462 5457 5452 5447 5442 5438 5433 5427 5422 5417 5412 5407 5400 5394 5388 5382 5375 5368 5362 5354 5345 5337 5330 5319 5306 5297 5291 5280 5268 5260 5254 5248 5244 5239 5234 5230 5224 5219 5215 5209 5204 5199 5196 5193 5191 5191 5193 5195 5198 5203 5209 5215 5222 5230 5238 5245 5252 5260 5267 5274 5284 5295 5306 5316 5326 5338 5351 5363 5372 5381 5391 5401 5414 5428 5438 5447 5456 5464 5471
5478 5474 5470 5466 5461 5457 5453 5448 5443 5439 5434 5429 5424 5419 5414 5409 5404 5399 5393 5387 5381 5374 5368 5361 5355 5348 5339 5330 5322 5312 5299 5287 5280 5272 5262 5255 5249 5244 5240 5235 5230 5225 5220 5214 5209 5204 5199 5195 5192 5190 5189 5190 5191 5193 5197 5202 5208 5215 5222 5229 5236 5243 5251 5258 5264 5272 5282 5293 5303 5313 5323 5335 5347 5358 5367 5377 5387 5398 5411 5424 5432 5439 5447 5454 5461
5470 5465 5461 5457 5453 5449 5444 5440 5435 5430 5425 5421 5416 5411 5406 5401 5396 5392 5387 5381 5375 5368 5362 5355 5347 5340 5332 5322 5313 5304 5292 5279 5270 5263 5256 5249 5244 5240 5236 5232 5227 5221 5216 5210 5205 5200 5196 5193 5191 5191 5191 5192 5193 5195 5199 5204 5210 5216 5223 5229 5235 5242 5249 5255 5262 5271 5281 5291 5301 5311 5322 5333 5343 5354 5364 5373 5382 5390 5398 5409 5418 5428 5437 5446 5453
5461 5457 5453 5449 5444 5440 5436 5431 5427 5422 5417 5412 5407 5403 5398 5393 5388 5384 5380 5375 5369 5362 5357 5350 5341 5332 5324 5314 5304 5295 5284 5272 5261 5255 5250 5245 5240 5236 5232 5228 5223 5218 5213 5207 5202 5198 5195 5194 5193 5193 5194 5196 5197 5200 5204 5208 5214 5220 5225 5230 5235 5241 5247 5253 5261 5270 5280 5291 5300 5310 5320 5331 5340 5350 5359 5369 5378 5384 5390 5400 5413 5423 5431 5440 5449
5453 5448 5444 5440 5436 5432 5428 5423 5419 5414 5409 5404 5399 5395 5390 5386 5381 5377 5372 5368 5362 5356 5350 5345 5337 5327 5317 5307 5296 5286 5275 5265 5255 5248 5244 5240 5236 5232 5228 5225 5221 5216 5211 5206 5201 5197 5196 5195 5195 5196 5197 5199 5201 5205 5208 5213 5217 5222 5226 5230 5235 5240 5246 5252 5260 5270 5280 5290 5299 5308 5319 5328 5337 5346 5355 5364 5374 5383 5390 5399 5411 5421 5429 5437 5446
5444 5439 5435 5432 5428 5424 5419 5414 5410 5406 5401 5396 5391 5387 5383 5379 5374 5370 5365 5361 5355 5349 5344 5338 5332 5323 5313 5301 5289 5278 5268 5259 5251 5243 5238 5236 5233 5229 5225 5222 5218 5214 5209 5205 5201 5198 5197 5197 5197 5198 5199 5201 5204 5208 5211 5215 5218 5222 5225 5229 5234 5239 5244 5250 5259 5269 5279 5288 5297 5306 5316 5325 5334 5343 5353 5361 5371 5382 5391 5398 5408 5420 5429 5437 5444
5435 5430 5427 5423 5419 5415 5411 5406 5402 5398 5394 5388 5384 5379 5375 5372 5367 5363 5359 5354 5349 5343 5338 5332 5326 5318 5308 5296 5284 5271 5260 5252 5246 5239 5234 5232 5229 5226 5222 5219 5216 5212 5208 5204 5201 5200 5199 5199 5199 5200 5201 5203 5205 5207 5210 5213 5217 5220 5223 5227 5232 5237 5242 5250 5260 5269 5278 5288 5298 5306 5314 5323 5331 5341 5351 5360 5369 5380 5390 5398 5407 5418 5427 5436 5446
5426 5422 5418 5414 5410 5406 5402 5398 5394 5390 5386 5381 5376 5372 5368 5364 5360 5356 5351 5347 5342 5337 5331 5326 5320 5312 5303 5291 5278 5266 5255 5246 5241 5235 5230 5227 5226 5222 5219 5216 5213 5210 5207 5204 5202 5201 5200 5200 5200 5201 5202 5203 5205 5206 5208 5211 5213 5216 5220 5224 5230 5236 5243 5251 5261 5270 5279 5290 5299 5306 5313 5321 5330 5340 5350 5360 5368 5378 5388 5397 5406 5415 5425 5437 5448
5417 5414 5409 5405 5402 5398 5394 5390 5386 5382 5378 5374 5369 5365 5361 5357 5353 5349 5345 5341 5336 5331 5325 5320 5315 5308 5299 5288 5275 5262 5252 5244 5237 5232 5227 5224 5222 5219 5216 5213 5211 5209 5206 5204 5202 5201 5200 5200 5200 5201 5202 5203 5203 5205 5206 5208 5210 5213 5217 5222 5229 5236 5244 5253 5262 5271 5280 5290 5298 5306 5314 5322 5330 5340 5350 5358 5366 5375 5386 5395 5404 5414 5424 5433 5442
5409 5406 5401 5397 5394 5389 5386 5382 5378 5374 5370 5366 5362 5358 5354 5350 5346 5342 5338 5334 5330 5325 5320 5315 5309 5303 5295 5286 5273 5260 5250 5242 5235 5230 5224 5220 5218 5216 5213 5211 5209 5207 5205 5203 5201 5201 5200 5200 5200 5200 5201 5201 5202 5203 5204 5206 5209 5212 5217 5222 5230 5237 5246 5255 5263 5271 5280 5289 5298 5306 5314 5322 5331 5340 5350 5358 5366 5376 5385 5393 5401 5410 5418 5424 5432
5402 5398 5394 5390 5386 5381 5378 5374 5370 5367 5363 5359 5355 5351 5347 5343 5340 5336 5332 5328 5323 5319 5314 5308 5303 5296 5289 5281 5270 5257 5247 5240 5234 5228 5223 5218 5215 5213 5211 5209 5207 5205 5203 5201 5200 5200 5200 5199 5199 5199 5200 5200 5201 5201 5203 5205 5208 5212 5218 5224 5231 5239 5248 5256 5264 5272 5280 5289 5298 5306 5315 5323 5332 5341 5349 5356 5364 5372 5380 5386 5394 5401 5408 5417 5428
5394 5391 5386 5382 5378 5374 5370 5367 5363 5360 5356 5352 5348 5345 5341 5337 5334 5329 5326 5321 5316 5312 5308 5302 5296 5289 5282 5275 5264 5252 5242 5236 5231 5226 5221 5216 5212 5210 5208 5207 5205 5203 5201 5200 5199 5198 5198 5198 5198 5198 5199 5199 5200 5201 5202 5204 5208 5213 5220 5227 5234 5242 5250 5257 5264 5272 5281 5289 5298 5306 5315 5323 5330 5337 5344 5351 5358 5366 5373 5381 5388 5396 5404 5413 5423
5387 5383 5379 5375 5371 5366 5363 5359 5356 5352 5349 5345 5341 5337 5333 5330 5327 5323 5319 5315 5310 5305 5300 5295 5289 5283 5276 5269 5259 5248 5238 5231 5227 5223 5218 5214 5210 5207 5206 5204 5203 5201 5199 5198 5197 5197 5197 5197 5197 5198 5198 5198 5199 5200 5201 5204 5208 5215 5222 5230 5237 5244 5251 5257 5264 5271 5280 5288 5297 5305 5312 5319 5325 5331 5338 5345 5353 5362 5371 5378 5386 5393 5401 5410 5417
5379 5376 5372 5367 5363 5359 5356 5352 5348 5345 5342 5339 5336 5332 5327 5323 5319 5316 5313 5308 5304 5299 5293 5288 5281 5275 5268 5262 5253 5244 5234 5227 5222 5218 5214 5210 5208 5206 5204 5202 5200 5199 5197 5196 5195 5195 5195 5196 5197 5197 5198 5198 5199 5200 5202 5205 5210 5216 5224 5232 5239 5245 5251 5257 5264 5272 5279 5287 5294 5302 5309 5315 5322 5328 5335 5343 5351 5359 5367 5374 5381 5389 5397 5404 5411
5371 5367 5364 5360 5356 5353 5349 5345 5342 5338 5335 5333 5330 5327 5323 5318 5313 5309 5305 5301 5296 5291 5286 5281 5274 5267 5260 5252 5245 5237 5230 5223 5218 5213 5209 5206 5204 5203 5202 5200 5198 5197 5195 5194 5193 5193 5194 5195 5196 5197 5197 5198 5199 5201 5203 5207 5212 5218 5225 5233 5240 5246 5252 5259 5266 5272 5278 5285 5292 5299 5306 5314 5321 5328 5334 5341 5348 5355 5362 5369 5376 5384 5392 5399 5406
5363 5359 5356 5352 5349 5346 5343 5339 5336 5333 5329 5326 5323 5320 5317 5313 5308 5303 5299 5293 5287 5282 5277 5272 5266 5260 5252 5244 5236 5227 5220 5217 5213 5209 5205 5203 5201 5200 5199 5198 5197 5195 5193 5192 5191 5191 5192 5194 5195 5196 5197 5198 5200 5202 5204 5208 5213 5219 5226 5234 5241 5246 5252 5259 5265 5271 5276 5283 5290 5297 5304 5312 5320 5327 5332 5338 5345 5351 5358 5365 5372 5379 5387 5395 5402
5354 5351 5348 5345 5342 5339 5336 5333 5330 5327 5325 5322 5318 5313 5309 5305 5301 5297 5292 5286 5280 5273 5267 5262 5256 5251 5244 5238 5231 5223 5215 5211 5209 5207 5203 5200 5197 5197 5196 5195 5195 5193 5191 5190 5190 5190 5191 5192 5194 5195 5196 5197 5199 5202 5205 5210 5214 5218 5224 5231 5238 5245 5251 5258 5264 5269 5274 5281 5287 5294 5302 5310 5317 5324 5330 5336 5342 5348 5354 5361 5368 5376 5384 5392 5399
5346 5343 5340 5337 5335 5332 5329 5327 5324 5322 5319 5317 5313 5309 5304 5298 5293 5288 5284 5280 5275 5268 5261 5255 5249 5243 5237 5229 5224 5220 5214 5209 5207 5204 5201 5198 5195 5193 5193 5193 5192 5191 5190 5189 5188 5188 5189 5191 5192 5194 5196 5197 5198 5201 5205 5210 5215 5219 5223 5228 5234 5241 5248 5254 5260 5266 5272 5278 5285 5292 5299 5307 5314 5321 5327 5333 5339 5345 5350 5356 5364 5372 5380 5387 5395
5338 5336 5333 5330 5328 5325 5323 5321 5318 5316 5314 5311 5308 5305 5300 5295 5290 5283 5277 5272 5267 5261 5255 5249 5242 5237 5231 5223 5217 5213 5209 5206 5203 5201 5198 5195 5192 5190 5190 5189 5189 5188 5187 5187 5186 5186 5187 5189 5191 5193 5195 5196 5198 5200 5204 5209 5215 5220 5225 5228 5232 5237 5243 5249 5256 5263 5270 5277 5283 5289 5296 5304 5311 5317 5323 5330 5336 5341 5347 5354 5362 5369 5376 5382 5388
5331 5328 5326 5323 5321 5319 5317 5315 5313 5311 5309 5306 5303 5299 5295 5291 5286 5281 5274 5268 5260 5253 5247 5241 5236 5230 5225 5219 5213 5208 5205 5202 5200 5197 5195 5193 5190 5188 5186 5186 5186 5185 5185 5184 5184 5184 5185 5187 5189 5191 5193 5195 5197 5199 5202 5206 5212 5218 5225 5230 5234 5238 5242 5248 5255 5261 5268 5274 5281 5287 5293 5300 5306 5313 5319 5326 5332 5338 5343 5351 5358 5365 5371 5377 5384
5324 5321 5319 5317 5315 5313 5311 5309 5308 5306 5303 5300 5297 5294 5290 5286 5281 5276 5271 5266 5260 5252 5245 5238 5232 5227 5221 5216 5210 5205 5201 5198 5196 5193 5191 5189 5188 5186 5185 5183 5182 5182 5182 5182 5182 5182 5183 5184 5186 5189 5191 5193 5195 5197 5200 5204 5209 5215 5222 5229 5234 5240 5244 5249 5254 5259 5265 5271 5278 5285 5290 5296 5303 5309 5315 5322 5328 5334 5340 5347 5354 5361 5367 5374 5381
5316 5314 5313 5311 5309 5308 5306 5304 5303 5301 5298 5295 5292 5289 5285 5281 5276 5271 5266 5261 5255 5250 5243 5236 5229 5222 5216 5211 5207 5201 5197 5194 5193 5191 5188 5185 5184 5183 5182 5181 5180 5179 5179 5179 5179 5179 5180 5182 5184 5186 5188 5191 5193 5196 5198 5202 5206 5212 5219 5226 5232 5238 5243 5249 5253 5258 5263 5268 5275 5281 5286 5292 5299 5306 5312 5318 5325 5331 5337 5343 5351 5358 5364 5371 5377
5309 5308 5306 5305 5303 5302 5301 5299 5298 5295 5293 5290 5287 5283 5280 5275 5270 5265 5261 5255 5250 5245 5239 5234 5228 5220 5213 5208 5204 5200 5196 5192 5190 5187 5184 5181 5180 5179 5179 5178 5177 5176 5176 5176 5177 5177 5178 5179 5181 5184 5186 5189 5191 5194 5196 5200 5204 5209 5215 5221 5228 5233 5239 5244 5249 5255 5260 5265 5271 5276 5282 5289 5296 5302 5309 5315 5321 5326 5332 5339 5347 5354 5360 5367 5373
5303 5302 5300 5299 5298 5297 5295 5294 5292 5290 5288 5285 5282 5278 5274 5270 5265 5260 5255 5250 5245 5240 5235 5230 5225 5219 5213 5208 5204 5200 5196 5191 5188 5186 5183 5181 5179 5178 5176 5175 5174 5173 5173 5174 5174 5174 5175 5176 5178 5181 5183 5186 5189 5192 5195 5198 5202 5207 5212 5217 5223 5229 5234 5239 5244 5250 5256 5262 5267 5273 5279 5285 5292 5299 5306 5312 5318 5323 5327 5334 5341 5348 5354 5361 5367
5297 5296 5295 5294 5293 5292 5290 5289 5287 5285 5283 5280 5276 5273 5269 5264 5260 5255 5250 5244 5240 5235 5230 5225 5220 5215 5210 5205 5201 5198 5195 5191 5188 5186 5184 5182 5179 5176 5173 5172 5171 5170 5170 5170 5171 5172 5172 5173 5175 5177 5180 5183 5186 5189 5193 5196 5200 5204 5209 5213 5219 5224 5229 5235 5241 5246 5252 5258 5264 5270 5275 5281 5288 5295 5302 5309 5315 5320 5324 5330 5336 5343 5350 5357 5364
5291 5290 5289 5289 5288 5287 5286 5284 5282 5280 5277 5274 5271 5267 5263 5259 5255 5250 5245 5240 5235 5230 5226 5220 5215 5210 5205 5201 5198 5196 5192 5189 5186 5184 5182 5180 5177 5174 5171 5170 5168 5167 5167 5167 5168 5169 5169 5170 5172 5174 5176 5179 5182 5186 5190 5193 5196 5200 5204 5209 5214 5219 5225 5232 5238 5243 5249 5254 5259 5265 5271 5277 5284 5291 5297 5304 5311 5316 5321 5326 5333 5340 5347 5355 5362
5286 5285 5284 5284 5283 5282 5281 5279 5277 5275 5272 5269 5266 5262 5258 5254 5251 5246 5240 5235 5230 5225 5221 5215 5210 5205 5201 5196 5194 5191 5188 5185 5182 5180 5178 5176 5174 5171 5169 5167 5165 5164 5164 5164 5165 5165 5166 5167 5168 5170 5172 5175 5178 5182 5186 5189 5193 5196 5200 5204 5209 5214 5221 5227 5234 5240 5246 5251 5256 5261 5267 5273 5279 5286 5293 5300 5307 5312 5317 5323 5329 5336 5343 5350 5357
5280 5280 5280 5279 5278 5277 5276 5274 5272 5270 5267 5263 5261 5257 5253 5250 5245 5241 5236 5231 5226 5221 5216 5211 5205 5200 5196 5192 5190 5187 5184 5182 5179 5177 5175 5173 5170 5168 5167 5165 5163 5162 5161 5161 5162 5162 5163 5164 5165 5166 5168 5171 5174 5178 5182 5185 5189 5193 5197 5201 5206 5211 5217 5223 5230 5236 5242 5248 5253 5259 5263 5268 5274 5281 5288 5295 5302 5308 5313 5319 5324 5331 5338 5344 5350
5275 5275 5275 5274 5273 5272 5271 5269 5267 5265 5262 5259 5256 5252 5248 5245 5240 5236 5232 5227 5222 5217 5212 5206 5201 5196 5192 5189 5187 5184 5182 5179 5176 5174 5172 5170 5168 5166 5164 5162 5161 5160 5159 5158 5159 5159 5160 5160 5161 5162 5164 5167 5170 5173 5177 5181 5185 5189 5193 5198 5203 5208 5214 5220 5226 5232 5238 5243 5249 5255 5260 5265 5270 5276 5282 5289 5295 5302 5308 5314 5320 5326 5332 5338 5344
5270 5270 5270 5269 5268 5267 5266 5264 5262 5259 5257 5254 5251 5247 5243 5240 5235 5231 5227 5223 5218 5214 5209 5203 5198 5193 5189 5186 5184 5182 5179 5177 5174 5172 5170 5168 5166 5165 5163 5160 5159 5158 5156 5156 5156 5156 5157 5158 5158 5159 5161 5162 5165 5169 5172 5176 5180 5184 5188 5193 5198 5204 5210 5216 5222 5228 5234 5239 5245 5251 5256 5261 5266 5272 5277 5283 5290 5296 5302 5309 5315 5321 5327 5332 5338
5265 5265 5265 5264 5263 5262 5261 5259 5257 5254 5252 5249 5245 5242 5238 5234 5230 5227 5222 5218 5214 5209 5204 5200 5195 5190 5187 5184 5182 5179 5177 5175 5173 5170 5168 5166 5165 5163 5161 5159 5158 5156 5155 5154 5153 5153 5154 5155 5155 5157 5158 5159 5161 5164 5168 5172 5176 5180 5184 5189 5193 5199 5205 5212 5218 5224 5229 5235 5240 5246 5251 5257 5262 5267 5273 5279 5285 5291 5298 5304 5310 5316 5322 5327 5332
5260 5260 5260 5259 5258 5257 5256 5254 5252 5249 5247 5244 5240 5237 5233 5229 5225 5222 5217 5213 5209 5205 5200 5196 5192 5187 5184 5182 5179 5177 5175 5173 5170 5169 5167 5165 5163 5161 5160 5158 5156 5154 5153 5152 5151 5151 5151 5152 5152 5154 5155 5156 5158 5161 5164 5168 5172 5175 5180 5184 5189 5194 5200 5207 5213 5220 5225 5230 5236 5241 5246 5252 5257 5263 5269 5275 5281 5287 5293 5299 5305 5310 5316 5321 5328
5255 5255 5255 5254 5253 5252 5250 5249 5247 5244 5241 5239 5235 5232 5228 5224 5221 5217 5213 5209 5205 5200 5196 5192 5188 5185 5182 5179 5177 5175 5173 5171 5169 5167 5165 5163 5161 5160 5158 5157 5155 5153 5152 5151 5150 5149 5149 5149 5150 5151 5152 5154 5156 5158 5160 5164 5168 5171 5176 5180 5185 5190 5196 5202 5209 5215 5221 5226 5231 5237 5241 5247 5252 5257 5263 5269 5275 5281 5287 5292 5298 5304 5310 5316 5322
5251 5251 5250 5249 5248 5247 5245 5243 5241 5239 5236 5234 5230 5227 5224 5220 5216 5212 5208 5205 5200 5196 5192 5188 5185 5182 5179 5177 5174 5173 5171 5169 5167 5165 5163 5161 5160 5158 5157 5155 5154 5152 5151 5149 5148 5148 5148 5147 5148 5149 5150 5151 5153 5155 5158 5161 5164 5167 5171 5176 5180 5185 5191 5197 5204 5210 5216 5221 5227 5232 5236 5241 5246 5251 5256 5262 5268 5274 5280 5286 5292 5298 5303 5309 5315
5246 5246 5245 5244 5243 5242 5240 5238 5236 5234 5231 5228 5225 5222 5219 5215 5211 5207 5204 5200 5196 5192 5187 5184 5181 5179 5176 5174 5172 5170 5168 5167 5165 5163 5161 5159 5158 5156 5155 5154 5153 5151 5150 5148 5147 5146 5146 5146 5146 5147 5148 5149 5151 5153 5155 5158 5161 5164 5167 5171 5176 5181 5186 5192 5198 5204 5210 5216 5222 5227 5231 5236 5240 5245 5250 5256 5261 5267 5273 5279 5285 5290 5295 5301 5306
5242 5241 5240 5239 5238 5236 5235 5233 5231 5228 5226 5223 5220 5217 5214 5210 5207 5203 5200 5196 5192 5188 5184 5181 5178 5176 5173 5171 5169 5167 5166 5164 5163 5161 5159 5158 5156 5155 5154 5153 5152 5151 5149 5148 5146 5145 5145 5145 5145 5145 5146 5147 5149 5151 5153 5155 5157 5160 5163 5167 5171 5176 5181 5187 5192 5199 5205 5211 5216 5221 5226 5231 5235 5240 5245 5251 5256 5261 5267 5272 5278 5283 5287 5292 5298
5237 5236 5235 5234 5233 5231 5230 5228 5226 5223 5221 5218 5215 5212 5209 5206 5203 5199 5195 5192 5188 5184 5181 5177 5175 5172 5170 5168 5167 5165 5163 5162 5161 5159 5158 5156 5155 5153 5152 5151 5150 5149 5148 5147 5146 5144 5144 5143 5144 5144 5144 5145 5146 5148 5151 5153 5155 5157 5160 5163 5167 5171 5176 5181 5187 5193 5199 5205 5210 5216 5221 5226 5230 5235 5240 5245 5250 5256 5261 5267 5272 5277 5281 5286 5291